Powrót do katalogu

FENGYUN 1C DEB

AktywnySSO
NORAD 33745·DEBRIS·🇨🇳 China

Wystrzelony May 10, 1999 z Taiyuan Satellite Launch Center

Loading…

Następne Przeloty (najbliższe 24 godziny)

TLE

ŚwieżeSource: Space-Track

Epoka: Sep 14, 2026, 02:15 UTC

1 33745U 99025DJJ 26257.09401235  .00001711  00000-0  75809-3 0  9995
2 33745  99.0961 308.5736 0053627 198.7241 161.1965 14.23757533699187

Śledź FENGYUN 1C DEB w czasie rzeczywistym z AllMySat

Download on the App Store